| DS18B20 | SHTC3 | ||||||
|---|---|---|---|---|---|---|---|
| ID | Date d/m/Y & Time | data1 สูง | data2 ต่ำ | data3 นอก | temp pcb | hum pcb | Time |
| 6795 | 29/03/2026 05:19:00 | 27.1  | 27.1  | 25.7  | 26.9  | 72.8  | 05:19 |
| 6794 | 29/03/2026 05:14:19 | 27.1  | 27.1  | 25.8  | 26.9  | 72.7  | 05:14 |
| 6793 | 29/03/2026 05:09:37 | 27.1  | 27.1  | 25.7  | 27.0  | 72.8  | 05:09 |
| 6792 | 29/03/2026 05:04:56 | 27.1  | 27.1  | 25.7  | 26.8  | 72.8  | 05:04 |
| 6791 | 29/03/2026 05:00:15 | 27.2  | 27.1  | 25.6  | 27.1  | 72.9  | 05:00 |
| 6790 | 29/03/2026 04:55:33 | 27.2  | 27.1  | 25.5  | 26.9  | 72.6  | 04:55 |
| 6789 | 29/03/2026 04:50:51 | 27.2  | 27.2  | 25.5  | 27.0  | 72.7  | 04:50 |
| 6788 | 29/03/2026 04:46:10 | 27.2  | 27.2  | 25.5  | 26.9  | 72.7  | 04:46 |
| 6787 | 29/03/2026 04:41:29 | 27.2  | 27.2  | 25.5  | 27.1  | 72.7  | 04:41 |
| 6786 | 29/03/2026 04:36:47 | 27.2  | 27.2  | 25.5  | 27.0  | 72.8  | 04:36 |
| 6785 | 29/03/2026 04:32:05 | 27.2  | 27.2  | 25.8  | 27.1  | 72.8  | 04:32 |
| 6784 | 29/03/2026 04:27:23 | 27.2  | 27.2  | 25.6  | 26.9  | 72.7  | 04:27 |
| 6783 | 29/03/2026 04:22:41 | 27.2  | 27.2  | 25.7  | 27.1  | 72.7  | 04:22 |
| 6782 | 29/03/2026 04:17:59 | 27.2  | 27.2  | 25.9  | 27.0  | 72.6  | 04:17 |
| 6781 | 29/03/2026 04:13:18 | 27.3  | 27.2  | 25.9  | 27.1  | 72.7  | 04:13 |
| 6780 | 29/03/2026 04:08:36 | 27.3  | 27.2  | 25.8  | 26.9  | 72.7  | 04:08 |
| 6779 | 29/03/2026 04:03:54 | 27.3  | 27.2  | 25.9  | 27.1  | 72.7  | 04:03 |
| 6778 | 29/03/2026 03:59:13 | 27.3  | 27.3  | 25.7  | 27.1  | 72.8  | 03:59 |
| 6777 | 29/03/2026 03:54:31 | 27.3  | 27.3  | 25.5  | 27.1  | 72.7  | 03:54 |
| 6776 | 29/03/2026 03:49:50 | 27.3  | 27.3  | 25.4  | 27.1  | 72.8  | 03:49 |
| 6775 | 29/03/2026 03:45:09 | 27.3  | 27.4  | 25.5  | 27.1  | 72.8  | 03:45 |
| 6774 | 29/03/2026 03:40:28 | 27.3  | 27.4  | 25.3  | 27.2  | 72.7  | 03:40 |
| 6773 | 29/03/2026 03:35:46 | 27.3  | 27.4  | 25.4  | 27.1  | 72.8  | 03:35 |
| 6772 | 29/03/2026 03:31:05 | 27.4  | 27.4  | 25.3  | 27.2  | 72.9  | 03:31 |